When you browse on this site, cookies collect data to enhance your experience and personalize the content and advertising you see.
Visit our Privacy Policy to learn more. By continuing to use the site, you agree to this use of cookies and data.
  • In Schweiz
  • Länderverzeichnis
  • Für 7 Tage
  • Wassertemperatur
  • Wetterkarte
  • Widgets
  • user-avatar
    Anmelden

    Stündliche Wetter Gloucester

    Heute, 25 Januar, Samstag

    Zeit Temperatur Niederschläge Wind Luftdruck Luftfeuchtigkeit
    00:00 +6°C° 0 mm 2 m/S 759 mmHg 88%
    01:00 +5°C° 0 mm 2 m/S 759 mmHg 89%
    02:00 +5°C° 0 mm 2 m/S 758 mmHg 89%
    03:00 +5°C° 0 mm 2 m/S 758 mmHg 90%
    04:00 +5°C° 0 mm 2 m/S 758 mmHg 91%
    05:00 +4°C° 0 mm 2 m/S 758 mmHg 92%
    06:00 +4°C° 0 mm 2 m/S 757 mmHg 93%
    07:00 +4°C° 0 mm 2 m/S 757 mmHg 93%
    08:00 +3°C° 0 mm 2 m/S 757 mmHg 94%
    09:00 +3°C° 0 mm 2 m/S 757 mmHg 94%
    10:00 +4°C° 0 mm 2 m/S 757 mmHg 91%
    11:00 +5°C° 0 mm 2 m/S 757 mmHg 88%
    12:00 +6°C° 0 mm 2 m/S 757 mmHg 85%
    13:00 +6°C° 0 mm 2 m/S 756 mmHg 87%
    14:00 +7°C° 0 mm 2 m/S 756 mmHg 89%
    15:00 +7°C° 0 mm 2 m/S 755 mmHg 91%
    16:00 +7°C° 0 mm 2 m/S 755 mmHg 93%
    17:00 +7°C° 0 mm 2 m/S 754 mmHg 94%
    18:00 +7°C° 0 mm 3 m/S 754 mmHg 96%
    19:00 +7°C° 0 mm 3 m/S 754 mmHg 95%
    20:00 +7°C° 0 mm 3 m/S 754 mmHg 94%
    21:00 +6°C° 0 mm 4 m/S 753 mmHg 94%
    22:00 +7°C° 0 mm 3 m/S 753 mmHg 94%
    23:00 +5°C° 0 mm 3 m/S 753 mmHg 95%

    Morgen, 26 Januar, Sonntag

    Zeit Temperatur Niederschläge Wind Luftdruck Luftfeuchtigkeit
    00:00 +5°C° 0 mm 3 m/S 752 mmHg 96%
    01:00 +7°C° 0 mm 3 m/S 752 mmHg 96%
    02:00 +7°C° 0 mm 3 m/S 751 mmHg 95%
    03:00 +6°C° 0 mm 4 m/S 751 mmHg 95%
    04:00 +6°C° 0 mm 4 m/S 751 mmHg 94%
    05:00 +6°C° 0 mm 4 m/S 750 mmHg 92%
    06:00 +5°C° 0 mm 4 m/S 750 mmHg 91%
    07:00 +5°C° 0 mm 4 m/S 750 mmHg 90%
    08:00 +5°C° 0 mm 4 m/S 750 mmHg 90%
    09:00 +5°C° 0 mm 5 m/S 750 mmHg 89%
    10:00 +6°C° 0.1 mm 5 m/S 749 mmHg 88%
    11:00 +7°C° 0.1 mm 6 m/S 749 mmHg 87%
    12:00 +8°C° 0.1 mm 7 m/S 748 mmHg 85%
    13:00 +8°C° 1.1 mm 7 m/S 748 mmHg 88%
    14:00 +8°C° 1.1 mm 7 m/S 747 mmHg 91%
    15:00 +8°C° 1.1 mm 7 m/S 747 mmHg 93%
    16:00 +7°C° 1.3 mm 6 m/S 746 mmHg 94%
    17:00 +7°C° 1.3 mm 4 m/S 746 mmHg 94%
    18:00 +7°C° 1.3 mm 3 m/S 746 mmHg 95%
    19:00 +7°C° 0.5 mm 3 m/S 746 mmHg 94%
    20:00 +5°C° 0.5 mm 3 m/S 746 mmHg 94%
    21:00 +5°C° 0.5 mm 3 m/S 746 mmHg 93%
    22:00 +4°C° 0 mm 3 m/S 746 mmHg 92%
    23:00 +3°C° 0 mm 3 m/S 746 mmHg 90%

    übermorgen, 27 Januar, Montag

    Zeit Temperatur Niederschläge Wind Luftdruck Luftfeuchtigkeit
    00:00 +2°C° 0 mm 3 m/S 747 mmHg 89%
    01:00 +1°C° 0 mm 4 m/S 746 mmHg 89%
    02:00 +1°C° 0 mm 4 m/S 746 mmHg 89%
    03:00 +1°C° 0 mm 5 m/S 746 mmHg 90%
    04:00 +2°C° 0.1 mm 5 m/S 746 mmHg 90%
    05:00 +2°C° 0.1 mm 5 m/S 745 mmHg 91%
    06:00 +3°C° 0.1 mm 5 m/S 745 mmHg 92%
    07:00 +3°C° 0.4 mm 5 m/S 745 mmHg 92%
    08:00 +3°C° 0.4 mm 5 m/S 744 mmHg 92%
    09:00 +3°C° 0.4 mm 5 m/S 744 mmHg 93%
    10:00 +5°C° 0.1 mm 5 m/S 744 mmHg 88%
    11:00 +4°C° 0.1 mm 6 m/S 744 mmHg 84%
    12:00 +5°C° 0.1 mm 7 m/S 744 mmHg 80%
    13:00 +5°C° 0.2 mm 6 m/S 743 mmHg 81%
    14:00 +6°C° 0.2 mm 5 m/S 742 mmHg 82%
    15:00 +5°C° 0.2 mm 4 m/S 741 mmHg 84%
    16:00 +5°C° 0.2 mm 4 m/S 741 mmHg 86%
    17:00 +4°C° 0.2 mm 4 m/S 740 mmHg 88%
    18:00 +3°C° 0.2 mm 4 m/S 740 mmHg 90%
    19:00 +3°C° 0.1 mm 4 m/S 739 mmHg 90%
    20:00 +3°C° 0.1 mm 4 m/S 739 mmHg 91%
    21:00 +3°C° 0.1 mm 4 m/S 738 mmHg 91%
    22:00 +3°C° 0.3 mm 4 m/S 738 mmHg 92%
    23:00 +3°C° 0.3 mm 4 m/S 737 mmHg 93%

    28 Januar, Dienstag

    Zeit Temperatur Niederschläge Wind Luftdruck Luftfeuchtigkeit
    00:00 +3°C° 0.3 mm 4 m/S 737 mmHg 94%
    01:00 +1°C° 0.6 mm 4 m/S 737 mmHg 91%
    02:00 +1°C° 0.6 mm 4 m/S 738 mmHg 89%
    03:00 +1°C° 0.6 mm 5 m/S 738 mmHg 87%
    04:00 0°C° 0 mm 4 m/S 738 mmHg 86%
    05:00 -1°C° 0 mm 4 m/S 739 mmHg 84%
    06:00 -2°C° 0 mm 4 m/S 740 mmHg 83%
    07:00 -1°C° 0 mm 4 m/S 740 mmHg 82%
    08:00 -1°C° 0 mm 4 m/S 740 mmHg 82%
    09:00 0°C° 0 mm 5 m/S 741 mmHg 81%
    10:00 +1°C° 0.1 mm 6 m/S 741 mmHg 78%
    11:00 +2°C° 0.1 mm 7 m/S 741 mmHg 75%
    12:00 +3°C° 0.1 mm 7 m/S 741 mmHg 73%
    13:00 +3°C° 0.1 mm 7 m/S 741 mmHg 72%
    14:00 +3°C° 0.1 mm 7 m/S 741 mmHg 72%
    15:00 +3°C° 0.1 mm 7 m/S 741 mmHg 71%
    16:00 +2°C° 0.1 mm 6 m/S 741 mmHg 74%
    17:00 +1°C° 0.1 mm 6 m/S 741 mmHg 77%
    18:00 0°C° 0.1 mm 5 m/S 742 mmHg 80%
    19:00 0°C° 0 mm 5 m/S 742 mmHg 80%
    20:00 -1°C° 0 mm 5 m/S 742 mmHg 79%
    21:00 -1°C° 0 mm 5 m/S 743 mmHg 79%
    22:00 -1°C° 0 mm 5 m/S 743 mmHg 79%
    23:00 -2°C° 0 mm 6 m/S 744 mmHg 78%

    29 Januar, Mittwoch

    Zeit Temperatur Niederschläge Wind Luftdruck Luftfeuchtigkeit
    00:00 -2°C° 0 mm 6 m/S 744 mmHg 78%
    01:00 -2°C° 0 mm 6 m/S 744 mmHg 77%
    02:00 -2°C° 0 mm 6 m/S 745 mmHg 77%
    03:00 -2°C° 0 mm 6 m/S 745 mmHg 76%
    04:00 -1°C° 0 mm 5 m/S 746 mmHg 78%
    05:00 -1°C° 0 mm 5 m/S 747 mmHg 79%
    06:00 -1°C° 0 mm 5 m/S 747 mmHg 80%
    07:00 -1°C° 0 mm 5 m/S 748 mmHg 80%
    08:00 0°C° 0 mm 5 m/S 749 mmHg 80%
    09:00 0°C° 0 mm 5 m/S 749 mmHg 80%
    10:00 +1°C° 0 mm 6 m/S 750 mmHg 76%
    11:00 +2°C° 0 mm 6 m/S 750 mmHg 72%
    12:00 +4°C° 0 mm 7 m/S 751 mmHg 68%
    13:00 +4°C° 0 mm 6 m/S 751 mmHg 69%
    14:00 +5°C° 0 mm 5 m/S 751 mmHg 70%
    15:00 +5°C° 0 mm 4 m/S 752 mmHg 71%
    16:00 +4°C° 0 mm 4 m/S 752 mmHg 76%
    17:00 +2°C° 0 mm 3 m/S 753 mmHg 82%
    18:00 +1°C° 0 mm 3 m/S 753 mmHg 87%
    19:00 +1°C° 0 mm 3 m/S 754 mmHg 88%
    20:00 +2°C° 0 mm 2 m/S 754 mmHg 89%
    21:00 +2°C° 0 mm 2 m/S 754 mmHg 90%
    22:00 +1°C° 0 mm 3 m/S 754 mmHg 91%
    23:00 +1°C° 0 mm 3 m/S 754 mmHg 92%

    30 Januar, Donnerstag

    Zeit Temperatur Niederschläge Wind Luftdruck Luftfeuchtigkeit
    00:00 +1°C° 0 mm 3 m/S 754 mmHg 93%
    01:00 +1°C° 0 mm 3 m/S 754 mmHg 93%
    02:00 +2°C° 0 mm 3 m/S 754 mmHg 93%
    03:00 +2°C° 0 mm 3 m/S 753 mmHg 94%
    04:00 +1°C° 0 mm 3 m/S 753 mmHg 94%
    05:00 +1°C° 0 mm 3 m/S 753 mmHg 94%
    06:00 +1°C° 0 mm 3 m/S 753 mmHg 94%
    07:00 +1°C° 0 mm 3 m/S 753 mmHg 94%
    08:00 +2°C° 0 mm 3 m/S 753 mmHg 95%
    09:00 +2°C° 0 mm 3 m/S 753 mmHg 95%
    10:00 +4°C° 0 mm 4 m/S 752 mmHg 91%
    11:00 +5°C° 0 mm 5 m/S 752 mmHg 87%
    12:00 +7°C° 0 mm 6 m/S 752 mmHg 84%
    13:00 +7°C° 0 mm 6 m/S 751 mmHg 83%
    14:00 +7°C° 0 mm 6 m/S 750 mmHg 83%
    15:00 +7°C° 0 mm 5 m/S 749 mmHg 83%
    16:00 +5°C° 0.1 mm 6 m/S 748 mmHg 85%
    17:00 +5°C° 0.1 mm 6 m/S 747 mmHg 88%
    18:00 +4°C° 0.1 mm 6 m/S 746 mmHg 90%
    19:00 +5°C° 0.2 mm 6 m/S 746 mmHg 92%
    20:00 +6°C° 0.2 mm 5 m/S 745 mmHg 94%
    21:00 +7°C° 0.2 mm 5 m/S 745 mmHg 96%
    22:00 +8°C° 0.2 mm 6 m/S 745 mmHg 96%
    23:00 +8°C° 0.2 mm 6 m/S 744 mmHg 95%
    Mehr zeigen